User: anonymous   Login
Location: Unspecified
(0.0000°N, 0.0000°E)
Time: 16:55:42
(UTC+00:00)
Language:

WGS 7 (USA 263) - Orbit

View from above orbital plane
View from above orbital plane
View from above satellite
View from above satellite

Ground track
Ground track

The orbit data is extracted from the following two-line orbital elements,

1 40746U 15036A   20051.89216003 -.00000001 +00000-0 +00000-0 0  9995
2 40746 000.0132 124.0193 0000094 034.9576 127.4893 01.00270665016734
Epoch (UTC): 20 February 2020 21:24:42
Eccentricity: 0.0000094
inclination: 0.0132°
perigee height: 35786 km
apogee height: 35787 km
right ascension of ascending node: 124.0193°
argument of perigee: 34.9576°
revolutions per day: 1.00270665
mean anomaly at epoch: 127.4893°
orbit number at epoch: 1673

The dashed part of the orbit path shows where the satellite is in the earth's shadow,  

DLR